Find Starlink 34548

NORAD ID: 64716 Int'l Des: 2025-142 Owner: SPXS Country: US Constellation: starlink operational
LEOCIRCULAR

当前视图

正在加载3D地球...

关于 Starlink 34548

正在加载描述...

即将过境

Passes for default location (London). Set your location on the main map for personalized predictions.

高度历史

Loading altitude history...

两行轨道根数

1 64716U 25142W 26150.87067088 .00004042 00000-0 34634-3 0 9999
2 64716 70.0016 107.1322 0002858 262.4018 97.6817 14.98335917 51770
Epoch: May 30, 2026 • Age: 7 hours

当前状态

高度 580.9 km
速度 7.57 km/s
星下点 -28.42°S, 14.63°W
发射日期 Jun 28, 2025
运行时间 0.9 years
类型 internet

技术详情

分类 Payload
质量 575.00 kg
干质量 530.00 kg
总质量 575.00 kg
长度 0.30 m
直径 4.10 m
跨度 29.00 m
形状 Box + pan
制造商 SPXS
平台类型 Starlink V2MO
阶段状态 In Orbit
所有者/国家 SPXS/US

Most Searched